{"data":{"norad_id":51640,"intl_designator":"2022-012U","name":"ONEWEB-0446","alt_names":[],"object_type":"PAYLOAD","status":"ACTIVE","operator":null,"country":"UK","launch_date":"2022-02-10","launch_site_code":"FRGUI","launch_vehicle":null,"mission":null,"orbit_class":"UNKNOWN","rcs_meters":null,"size_class":null,"mass_kg":null,"dimensions":null,"purposes":["comms"],"wikipedia_slug":null,"has_3d_model":false,"image_url":null,"decayed_at":null,"tle_current":{"epoch":"2026-05-25T02:39:26.609760Z","epoch_age_seconds":62154,"freshness":"FRESH","line1":"1 51640U 22012U   26145.11072465 -.00000375  00000+0 -11113-2 0  9992","line2":"2 51640  87.8849  40.8781 0001731  84.0893 276.0431 13.10371203206309","mean_motion":13.10371203,"eccentricity":0.0001731,"inclination_deg":87.8849,"raan_deg":40.8781,"arg_perigee_deg":84.0893,"mean_anomaly_deg":276.0431,"bstar":-0.0011113,"rev_number":20630,"period_min":109.89252485885,"perigee_km":1220.407855497,"apogee_km":1223.0389271645,"semimajor_km":7599.8603913307,"source":"CELESTRAK","updated_at":"2026-05-25T13:38:22.579812Z"}}}